Location: St. Louis
(38.6270°N, 90.1994°W)
Time: 01:48:42
(UTC-06:00)

Transit 4A - Pass Details

Date: 30 November 2021
Orbit: 863 x 981 km, 66.8° (Epoch: 24 January)

Event Time Altitude Azimuth Distance (km) Brightness Sun altitude
Rises 18:36:19 0° 171° (S) 3,432 10.9 -22.2°
Reaches altitude 10° 18:39:12 10° 158° (SSE) 2,507 10.0 -22.8°
Enters shadow 18:40:37 16° 147° (SSE) 2,134 9.6 -23.1°
Maximum altitude 18:43:44 24° 106° (ESE) 1,734 - -23.7°
Drops below altitude 10° 18:48:21 10° 54° (NE) 2,565 - -24.5°
Sets 18:51:20 0° 42° (NE) 3,530 - -25.1°
